ポンス-ブルックス彗星

12P/Pons-Brooks (2024)

English version
Home page
Updated on October 22, 2022

---------------------------------------------------------------------

・ プロフィール

・ 写真集

・ 軌道要素

Epoch 2022 Aug. 9.0 TT = JDT 2459800.5
T 2024 Apr. 21.21544 TT                                 Rudenko
q   0.7815541            (2000.0)            P               Q
n   0.01385305     Peri.  198.98061     +0.14562003     -0.32973731
a  17.1700854      Node   255.82119     +0.98557472     +0.13053382
e   0.9544816      Incl.   74.17169     +0.08623963     -0.93500494
P  71.1
From 54 observations 1953 June 20-2022 June 6, mean residual 1".0.
     Nongravitational parameters A1 = -0.40, A2 = -0.1601.

・ 星図

・ 光度変化

        H = 12.5  G = 0.15               [    ,-560]  (              〜2022年10月 9日)
        m1 = 5.0 + 5 logΔ + 15.0 log r  [-560,    ]  (2022年10月 9日〜              )

---------------------------------------------------------------------

軌道要素はM.P.E.C. 2022-M21に掲載されたものです。
星図はステラナビゲータ Ver.10 (アストロアーツ) で作成したものです。
光度グラフはComet for Windowsで作成したものです。

---------------------------------------------------------------------

Copyright(C) Seiichi Yoshida (comet@aerith.net). All rights reserved.